Content
SEND FEEDBACK

Daily
Averages
Monthly
Summary
United States of America

ST. LOUIS, MISSOURI


Home > North America > United States > Missouri
Elevation: 163 meters     Latitude: 38 45N     Longitude: 090 22W

WEATHER
 
SELECT A DAY
Number of Records: 196,268;   Date Range: 1/1/95 - 7/20/14
 
SHARE

PRINT THIS DATA

[ ← Previous Day ]
WEATHER ALMANAC - 11 FEBRUARY, 2013
[ Next Day → ]
[ °F ]   °C
Weather ElementAverageHighLow
Temperature4.7 °C10.6 °C (3:54 pm)-2.2 °C (11:54 pm)
Dewpoint-3.9 °C-2.8 °C (9:54 am)-5 °C (4:54 pm)
Humidity55.9 %82 % (9:54 pm)35 % (3:54 pm)
Barometer1017.6 hPa1021.7 hPa (10:54 pm)1011.5 hPa (1:54 am)
Wind Speed18.5 km/h35.2 km/h (1:54 pm)
Wind Gust51.8 km/h (1:54 am)
Weather ElementAverage
Visibility16.1 km
Wind DirectionSSW (203.9 °)

Weather ElementTotal
Precipitation---
Heating Degree Days14.2 (Base 18.3)
Averaged from 23 records on 11 February, 2013
WEATHER CONDITIONS BREAKOUT
WIND DIRECTION BREAKOUT
WEATHER BY HOUR - 11 FEBRUARY, 2013
[ °F ]   °C
Local TimeTemperatureDewpointHumidityBarometerVisibilityWind DirectionWind SpeedGust SpeedPrecipitationEventsConditions
1:54 AM5 °C-3.9 °C53 %1011.5 hPa16.1 kmWest (260°)29.6 km/h51.8 km/hClear
2:54 AM4 °C-4 °C56 %1012.5 hPa16.1 kmWest (270°)27.8 km/h50.1 km/hPartly Cloudy
3:54 AM3.3 °C-4.4 °C57 %1012.9 hPa16.1 kmWSW (250°)25.9 km/h35.2 km/hClear
4:54 AM3.3 °C-4.4 °C57 %1013.2 hPa16.1 kmWest (260°)20.4 km/hClear
5:54 AM2.8 °C-3.9 °C62 %1013.9 hPa16.1 kmWest (260°)24.1 km/h44.4 km/hClear
6:54 AM2.8 °C-3.9 °C62 %1014.9 hPa16.1 kmWest (260°)25.9 km/h38.9 km/hClear
7:54 AM3 °C-3 °C65 %1016.3 hPa16.1 kmWest (260°)24.1 km/hClear
8:54 AM4.4 °C-3.3 °C58 %1016.9 hPa16.1 kmWest (270°)24.1 km/h37 km/hPartly Cloudy
9:54 AM6.1 °C-2.8 °C53 %1017.6 hPa16.1 kmWest (270°)18.5 km/h40.7 km/hPartly Cloudy
10:54 AM7.2 °C-3.3 °C48 %1017.9 hPa16.1 kmWest (280°)24.1 km/h40.7 km/hPartly Cloudy
11:54 AM8.3 °C-3.9 °C42 %1018.3 hPa16.1 kmWest (260°)25.9 km/h35.2 km/hClear
12:54 PM8.9 °C-3.9 °C41 %1018.3 hPa16.1 kmWest (280°)29.6 km/h40.7 km/hClear
1:54 PM9.4 °C-3.3 °C41 %1017.9 hPa16.1 kmWSW (250°)35.2 km/h40.7 km/hClear
2:54 PM10 °C-3.3 °C39 %1018.3 hPa16.1 kmWSW (240°)25.9 km/hClear
3:54 PM10.6 °C-4.4 °C35 %1018.6 hPa16.1 kmWSW (250°)22.2 km/hClear
4:54 PM9.4 °C-5 °C36 %1018.3 hPa16.1 kmWest (260°)20.4 km/hClear
5:54 PM7.2 °C-4.4 °C44 %1019 hPa16.1 kmWest (260°)13 km/hClear
6:54 PM5 °C-3.9 °C53 %1019.6 hPa16.1 kmWSW (250°)7.4 km/hClear
7:54 PM2.2 °C-3.3 °C67 %1020.3 hPa16.1 kmCalmClear
8:54 PM0.6 °C-3.9 °C72 %1020.7 hPa16.1 kmCalmClear
9:54 PM-1.7 °C-4.4 °C82 %1021.3 hPa16.1 kmCalmClear
10:54 PM-1.7 °C-4.4 °C82 %1021.7 hPa16.1 kmCalmClear
11:54 PM-2.2 °C-5 °C81 %1021.7 hPa16.1 kmCalmClear
Hourly data recorded from KSUS, located 0 kilometers away from St. Louis, Missouri







STORIES FROM OUR PARTNERS